IRIDIUM 82 [-]

Last updated on Wed Jun 28 2023 00:03:02 GMT+0000 (Coordinated Universal Time)

1 25467U 98051A 23178.26452894 .00011203 00000+0 68936-3 0 9999 2 25467 86.3955 92.6229 0155961 78.8229 283.0490 15.00186390314967
UTC large
Height (km)
Speed (km/s)
/
Latitude / Longitude
Inclination (degrees)
Orbital Period (minutes)
Azimuth
Elevation
Range (km)
Doppler Factor

Next 0 passes for location: London (51.5072 / 0.1276)

Sorry there are no passes over London.